RH
17 22 22 21 24 25 29 31 31 32 35 31 34 29 30 26 27 30 28 31 35 39 46 49 54 61 65 66 65 57 56 56 56 55 56 55 59 66 78 79 73 81 90 84
20 19 19 19 17 19 21 24 29 30 32 32 42 37 30 23 26 26 30 29 31 34 37 43 56 60 66 67 61 56 52 55 54 52 52 52 63 74 77 81 78 85 88 87
25 25 25 23 20 17 17 18 19 21 22 21 24 29 26 27 26 27 32 26 28 30 34 41 51 62 63 70 65 58 55 55 58 65 64 60 75 78 79 82 85 85 87 90
27 30 28 23 21 20 20 19 20 20 21 22 25 25 25 28 35 33 30 27 27 27 31 39 51 62 68 68 64 61 53 64 73 72 75 79 81 80 77 85 84 84 91 91
29 29 27 27 26 24 23 29 29 28 29 30 31 28 26 46 34 34 28 23 25 30 30 35 49 62 69 72 66 58 48 51 66 76 78 80 81 80 79 84 87 89 89 90
33 32 31 38 35 31 27 29 30 30 30 31 29 28 31 43 41 31 25 25 27 33 37 38 47 60 68 70 71 52 46 44 54 73 77 76 78 79 82 87 85 87 84 81
32 33 33 37 35 33 31 39 38 37 36 35 39 40 37 33 32 26 27 31 33 36 40 40 44 58 65 68 69 50 44 43 41 50 73 76 77 79 75 69 68 67 68 65
33 32 32 36 36 37 39 40 36 36 38 41 43 45 45 38 36 30 30 36 38 39 40 42 47 57 65 67 65 43 41 40 41 42 58 72 75 70 67 53 52 54 74 69
41 50 43 36 37 35 34 33 31 32 34 37 39 41 40 39 38 32 34 38 46 46 44 48 52 59 68 69 58 42 40 39 35 37 36 39 52 56 45 42 50 57 73 76
34 39 38 37 33 32 33 32 32 32 33 36 37 39 39 38 36 34 37 44 45 52 49 53 57 62 74 67 54 41 43 44 39 37 38 41 41 43 43 45 49 58 69 69
33 41 36 35 35 31 31 32 33 32 33 34 36 37 37 37 35 37 39 46 49 54 58 57 62 65 68 70 50 44 45 43 41 38 37 43 47 46 42 47 51 54 55 54
43 41 37 39 36 32 33 32 32 31 31 31 33 35 36 36 36 35 40 44 50 57 62 67 69 69 71 69 67 51 54 63 55 48 43 42 45 46 39 45 48 48 45 49
40 39 38 36 36 37 34 31 30 28 28 29 30 32 35 37 37 36 38 40 45 54 66 67 74 78 74 74 76 64 54 60 63 61 58 47 46 44 40 38 43 44 46 43
38 37 34 35 35 36 33 33 32 30 29 27 27 29 34 35 37 38 36 37 40 48 59 71 73 75 73 71 72 71 68 62 55 55 55 53 48 46 41 39 38 36 36 38
45 39 38 38 35 34 34 34 32 30 28 28 29 28 29 33 36 38 36 35 37 42 49 58 70 77 75 69 64 59 61 56 66 59 56 52 51 50 42 36 36 32 31 32
48 46 45 43 42 41 40 39 38 37 33 30 30 30 30 31 32 35 37 37 37 38 43 48 52 63 64 72 72 68 63 66 62 85 67 53 55 52 53 44 39 33 31 26
47 47 46 45 45 43 42 43 44 42 40 38 33 32 32 32 32 29 30 35 40 39 38 40 47 49 54 58 62 72 79 83 67 96 75 59 54 61 61 64 56 51 43 35
57 55 55 54 52 51 48 47 46 44 43 45 43 38 35 34 34 32 28 31 35 41 41 38 39 43 45 47 52 57 65 77 80 88 90 67 58 68 64 69 68 67 62 50
59 59 61 61 62 61 60 59 56 52 49 46 44 43 43 38 37 36 34 32 32 34 35 41 44 41 40 40 46 52 50 53 58 66 77 78 66 77 84 89 76 70 73 70
68 67 69 69 71 71 68 65 67 65 63 58 53 48 44 44 41 39 38 34 31 31 33 36 41 44 45 45 43 45 45 46 50 58 57 57 60 86 96 81 91 80 73 80
69 69 68 68 69 71 74 74 74 75 71 70 66 62 58 51 45 44 42 39 37 36 33 32 32 36 45 52 53 51 44 40 42 53 63 48 61 90 94 95 86 79 76 66
68 67 64 64 62 64 74 76 80 80 78 73 72 70 67 64 62 57 53 48 42 39 37 35 33 31 29 36 50 59 57 48 46 45 52 58 59 66 81 72 75 68 63 60
67 67 64 58 57 64 73 80 83 83 83 84 78 74 75 72 72 71 68 61 59 57 50 41 37 35 35 32 32 40 55 65 56 49 50 55 58 52 53 58 61 53 48 48
58 57 55 50 52 57 70 80 84 84 84 83 82 83 82 80 77 74 73 71 68 65 65 63 59 51 41 41 39 36 32 43 63 61 53 50 48 48 48 46 47 48 45 43
58 61 60 52 52 55 63 75 85 87 84 81 80 82 81 79 79 77 79 78 77 80 78 72 68 68 64 54 46 46 37 34 37 49 62 58 53 51 51 49 48 46 46 47
55 60 63 58 54 56 60 62 72 81 80 76 77 76 70 68 66 64 67 67 68 73 85 90 84 80 73 67 64 58 52 42 36 32 38 51 66 61 57 57 55 52 52 51
62 70 70 62 56 52 54 62 63 69 80 83 80 80 75 70 68 69 72 75 76 77 78 83 97 96 86 76 72 69 66 61 51 40 33 32 42 59 64 60 59 61 60 57